| time (UTC) | temp F | wind direction | speed MPH | gust MPH | rain 1hr in | rain 24hr in | rain mn in | humidity % | barometer mb |
| 20260509124002 | 56 | 251 | 2.0 | 3.0 | 0.00 | 0.00 | 0.00 | 66 | 1003.8 |
| 20260509123002 | 56 | 284 | 6.0 | 7.0 | 0.00 | 0.00 | 0.00 | 68 | 1003.6 |
| 20260509122002 | 56 | 258 | 10.0 | 12.0 | 0.00 | 0.00 | 0.00 | 67 | 1003.6 |
| 20260509121001 | 56 | 238 | 8.0 | 11.0 | 0.00 | 0.00 | 0.00 | 67 | 1003.8 |
| 20260509120502 | 56 | 240 | 10.0 | 11.0 | 0.00 | 0.00 | 0.00 | 64 | 1003.7 |
| 20260509115502 | 56 | 252 | 5.0 | 5.0 | 0.00 | 0.00 | 0.00 | 66 | 1004.0 |
| 20260509114001 | 56 | 215 | 3.0 | 3.0 | 0.00 | 0.00 | 0.00 | 66 | 1004.1 |
| 20260509113002 | 56 | 196 | 5.0 | 6.0 | 0.00 | 0.00 | 0.00 | 62 | 1003.9 |
| 20260509112501 | 56 | 214 | 4.0 | 6.0 | 0.00 | 0.00 | 0.00 | 63 | 1003.9 |
| 20260509111002 | 56 | 195 | 8.0 | 12.0 | 0.00 | 0.00 | 0.00 | 62 | 1004.0 |
| 20260509110501 | 55 | 198 | 3.0 | 4.0 | 0.00 | 0.00 | 0.00 | 63 | 1004.2 |
| 20260509105502 | 55 | 221 | 4.0 | 4.0 | 0.00 | 0.00 | 0.00 | 63 | 1004.6 |
| 20260509105001 | 55 | 254 | 4.0 | 5.0 | 0.00 | 0.00 | 0.00 | 62 | 1004.6 |
| 20260509103502 | 52 | 233 | 2.0 | 3.0 | 0.00 | 0.00 | 0.00 | 63 | 1004.6 |
| 20260509102002 | 54 | 158 | 1.0 | 2.0 | 0.00 | 0.00 | 0.00 | 59 | 1004.7 |
| 20260509100002 | 56 | 221 | 3.0 | 4.0 | 0.00 | 0.00 | 0.00 | 53 | 1005.2 |
| 20260509095002 | 56 | 233 | 4.0 | 5.0 | 0.00 | 0.00 | 0.00 | 55 | 1005.4 |
| 20260509093502 | 56 | 210 | 8.0 | 10.0 | 0.00 | 0.00 | 0.00 | 54 | 1005.6 |
| 20260509092002 | 56 | 193 | 5.0 | 6.0 | 0.00 | 0.00 | 0.00 | 51 | 1005.8 |
| 20260509091001 | 56 | 194 | 7.0 | 7.0 | 0.00 | 0.00 | 0.00 | 51 | 1005.8 |
| 20260509090001 | 56 | 205 | 10.0 | 11.0 | 0.00 | 0.00 | 0.00 | 49 | 1005.8 |
| 20260509084502 | 56 | 196 | 9.0 | 11.0 | 0.00 | 0.00 | 0.00 | 51 | 1006.2 |
| 20260509084001 | 56 | 215 | 10.0 | 12.0 | 0.00 | 0.00 | 0.00 | 48 | 1006.2 |
| 20260509083502 | 56 | 213 | 9.0 | 11.0 | 0.00 | 0.00 | 0.00 | 52 | 1006.1 |
| 20260509083001 | 56 | 201 | 11.0 | 13.0 | 0.00 | 0.00 | 0.00 | 51 | 1006.2 |
| 20260509082502 | 56 | 208 | 8.0 | 9.0 | 0.00 | 0.00 | 0.00 | 51 | 1006.0 |
| 20260509081001 | 56 | 207 | 9.0 | 10.0 | 0.00 | 0.00 | 0.00 | 52 | 1006.4 |
| 20260509080002 | 56 | 201 | 7.0 | 9.0 | 0.00 | 0.00 | 0.00 | 53 | 1006.5 |
| 20260509075501 | 56 | 180 | 10.0 | 12.0 | 0.00 | 0.00 | 0.00 | 50 | 1006.5 |
| 20260509074002 | 54 | 192 | 6.0 | 7.0 | 0.00 | 0.00 | 0.00 | 53 | 1006.8 |
| 20260509073502 | 51 | 166 | 2.0 | 3.0 | 0.00 | 0.00 | 0.00 | 61 | 1007.2 |
| 20260509073002 | 50 | 139 | 1.0 | 2.0 | 0.00 | 0.00 | 0.00 | 61 | 1007.1 |
| 20260509070002 | 46 | 131 | 1.0 | 2.0 | 0.00 | 0.00 | 0.00 | 74 | 1007.7 |
| 20260509065501 | 46 | 80 | 2.0 | 2.0 | 0.00 | 0.00 | 0.00 | 80 | 1008.0 |
| 20260509065002 | 46 | 105 | 2.0 | 2.0 | 0.00 | 0.00 | 0.00 | 78 | 1007.8 |
| 20260509064501 | 46 | 52 | 1.0 | 2.0 | 0.00 | 0.00 | 0.00 | 78 | 1008.0 |
| 20260509064002 | 46 | 109 | 1.0 | 2.0 | 0.00 | 0.00 | 0.00 | 74 | 1008.2 |
| 20260509062002 | 47 | 141 | 0.0 | 0.0 | 0.00 | 0.00 | 0.00 | 69 | 1008.3 |
| 20260509061501 | 47 | 132 | 0.0 | 0.0 | 0.00 | 0.00 | 0.00 | 70 | 1008.5 |
| 20260509061002 | 49 | 147 | 2.0 | 3.0 | 0.00 | 0.00 | 0.00 | 70 | 1008.5 |
| 20260509060502 | 48 | 84 | 0.0 | 0.0 | 0.00 | 0.00 | 0.00 | 64 | 1008.7 |
| 20260509055502 | 49 | 154 | 1.0 | 2.0 | 0.00 | 0.00 | 0.00 | 68 | 1009.0 |
| 20260509055002 | 49 | 142 | 0.0 | 0.0 | 0.00 | 0.00 | 0.00 | 67 | 1009.1 |
| 20260509054502 | 50 | 147 | 0.0 | 0.0 | 0.00 | 0.00 | 0.00 | 63 | 1009.2 |
| 20260509054002 | 50 | 147 | 1.0 | 2.0 | 0.00 | 0.00 | 0.00 | 62 | 1009.2 |
| 20260509053502 | 50 | 134 | 3.0 | 3.0 | 0.00 | 0.00 | 0.00 | 63 | 1009.2 |
| 20260509053002 | 50 | 142 | 1.0 | 2.0 | 0.00 | 0.00 | 0.00 | 61 | 1009.2 |
| 20260509052502 | 50 | 171 | 3.0 | 3.0 | 0.00 | 0.00 | 0.00 | 62 | 1009.3 |
| 20260509050501 | 49 | 92 | 3.0 | 4.0 | 0.00 | 0.00 | 0.00 | 62 | 1009.6 |
| 20260509045502 | 50 | 145 | 2.0 | 2.0 | 0.00 | 0.00 | 0.00 | 61 | 1009.7 |
| 20260509045002 | 50 | 121 | 3.0 | 3.0 | 0.00 | 0.00 | 0.00 | 61 | 1009.6 |
| 20260509044502 | 50 | 131 | 1.0 | 2.0 | 0.00 | 0.00 | 0.00 | 61 | 1009.7 |
| 20260509043501 | 49 | 78 | 2.0 | 3.0 | 0.00 | 0.00 | 0.00 | 62 | 1009.9 |
| 20260509043002 | 49 | 139 | 0.0 | 0.0 | 0.00 | 0.00 | 0.00 | 64 | 1009.8 |
| 20260509042502 | 49 | 132 | 0.0 | 0.0 | 0.00 | 0.00 | 0.00 | 62 | 1010.1 |
| 20260509042002 | 50 | 119 | 1.0 | 2.0 | 0.00 | 0.00 | 0.00 | 62 | 1010.2 |
| 20260509041502 | 50 | 107 | 1.0 | 2.0 | 0.00 | 0.00 | 0.00 | 60 | 1010.4 |
| 20260509041002 | 50 | 116 | 1.0 | 2.0 | 0.00 | 0.00 | 0.00 | 60 | 1010.3 |
| 20260509040002 | 50 | 122 | 2.0 | 2.0 | 0.00 | 0.00 | 0.00 | 58 | 1010.4 |
| 20260509035002 | 50 | 143 | 1.0 | 2.0 | 0.00 | 0.00 | 0.00 | 59 | 1010.5 |
| 20260509034502 | 50 | 144 | 0.0 | 0.0 | 0.00 | 0.00 | 0.00 | 60 | 1010.5 |
| 20260509034001 | 50 | 126 | 1.0 | 2.0 | 0.00 | 0.00 | 0.00 | 59 | 1010.3 |
| 20260509033502 | 50 | 144 | 0.0 | 0.0 | 0.00 | 0.00 | 0.00 | 58 | 1010.3 |
| 20260509033001 | 50 | 135 | 1.0 | 2.0 | 0.00 | 0.00 | 0.00 | 59 | 1010.5 |
| 20260509032002 | 50 | 106 | 2.0 | 3.0 | 0.00 | 0.00 | 0.00 | 58 | 1010.5 |
| 20260509030001 | 48 | 85 | 0.0 | 0.0 | 0.00 | 0.00 | 0.00 | 67 | 1010.8 |
| 20260509025001 | 48 | 120 | 0.0 | 0.0 | 0.00 | 0.00 | 0.00 | 69 | 1010.8 |
| 20260509024502 | 48 | 120 | 0.0 | 0.0 | 0.00 | 0.00 | 0.00 | 66 | 1010.8 |
| 20260509024001 | 49 | 84 | 2.0 | 2.0 | 0.00 | 0.00 | 0.00 | 67 | 1010.9 |
| 20260509023502 | 49 | 133 | 1.0 | 2.0 | 0.00 | 0.00 | 0.00 | 62 | 1011.0 |
| 20260509023001 | 49 | 123 | 2.0 | 2.0 | 0.00 | 0.00 | 0.00 | 61 | 1010.9 |
| 20260509022502 | 49 | 123 | 2.0 | 2.0 | 0.00 | 0.00 | 0.00 | 65 | 1011.0 |
| 20260509022001 | 49 | 121 | 3.0 | 3.0 | 0.00 | 0.00 | 0.00 | 64 | 1010.9 |
| 20260509021502 | 48 | 153 | 0.0 | 0.0 | 0.00 | 0.00 | 0.00 | 71 | 1010.9 |
| 20260509021001 | 48 | 117 | 0.0 | 0.0 | 0.00 | 0.00 | 0.00 | 71 | 1011.0 |
| 20260509020502 | 49 | 119 | 0.0 | 0.0 | 0.00 | 0.00 | 0.00 | 66 | 1011.1 |
| 20260509020002 | 49 | 113 | 1.0 | 2.0 | 0.00 | 0.00 | 0.00 | 63 | 1011.0 |
| 20260509015501 | 49 | 110 | 1.0 | 3.0 | 0.00 | 0.00 | 0.00 | 64 | 1011.0 |
| 20260509015002 | 49 | 155 | 0.0 | 0.0 | 0.00 | 0.00 | 0.00 | 69 | 1011.0 |
| 20260509014501 | 49 | 110 | 1.0 | 2.0 | 0.00 | 0.00 | 0.00 | 64 | 1011.0 |
| 20260509014002 | 49 | 110 | 2.0 | 2.0 | 0.00 | 0.00 | 0.00 | 64 | 1010.9 |
| 20260509012002 | 50 | 126 | 1.0 | 2.0 | 0.00 | 0.00 | 0.00 | 65 | 1010.6 |
| 20260509011002 | 52 | 204 | 2.0 | 2.0 | 0.00 | 0.00 | 0.00 | 58 | 1010.9 |
| 20260509005002 | 53 | 231 | 3.0 | 4.0 | 0.00 | 0.00 | 0.00 | 53 | 1011.1 |
| 20260509004002 | 53 | 264 | 3.0 | 4.0 | 0.00 | 0.00 | 0.00 | 56 | 1010.8 |
| 20260509003502 | 53 | 291 | 3.0 | 3.0 | 0.00 | 0.00 | 0.00 | 55 | 1010.7 |
| 20260509003001 | 53 | 266 | 2.0 | 3.0 | 0.00 | 0.00 | 0.00 | 55 | 1010.7 |
| 20260509002502 | 53 | 282 | 3.0 | 4.0 | 0.00 | 0.00 | 0.00 | 53 | 1010.7 |
| 20260509002001 | 53 | 246 | 1.0 | 2.0 | 0.00 | 0.00 | 0.00 | 55 | 1010.8 |
| 20260509001502 | 54 | 265 | 2.0 | 2.0 | 0.00 | 0.00 | 0.00 | 56 | 1010.7 |
| 20260509001001 | 54 | 235 | 0.0 | 0.0 | 0.00 | 0.00 | 0.00 | 55 | 1010.9 |
| 20260509000502 | 54 | 235 | 0.0 | 0.0 | 0.00 | 0.00 | 0.00 | 52 | 1010.9 |
| 20260509000002 | 54 | 235 | 0.0 | 0.0 | 0.00 | 0.00 | 0.00 | 56 | 1010.9 |
| 20260508235501 | 54 | 239 | 1.0 | 2.0 | 0.00 | 0.00 | 0.00 | 49 | 1011.0 |
| 20260508235002 | 54 | 247 | 1.0 | 2.0 | 0.00 | 0.00 | 0.00 | 49 | 1011.0 |
| 20260508234501 | 54 | 279 | 4.0 | 4.0 | 0.00 | 0.00 | 0.00 | 50 | 1010.8 |
| 20260508233501 | 54 | 271 | 3.0 | 3.0 | 0.00 | 0.00 | 0.00 | 49 | 1011.1 |
| 20260508232001 | 54 | 247 | 4.0 | 4.0 | 0.00 | 0.00 | 0.00 | 50 | 1011.3 |
| 20260508231502 | 54 | 246 | 4.0 | 4.0 | 0.00 | 0.00 | 0.00 | 47 | 1011.2 |
| 20260508231001 | 55 | 248 | 4.0 | 5.0 | 0.00 | 0.00 | 0.00 | 48 | 1011.2 |
| 20260508230502 | 56 | 264 | 2.0 | 2.0 | 0.00 | 0.00 | 0.00 | 44 | 1011.2 |
| 20260508230001 | 56 | 234 | 3.0 | 3.0 | 0.00 | 0.00 | 0.00 | 48 | 1011.3 |
| 20260508225502 | 54 | 301 | 5.0 | 6.0 | 0.00 | 0.00 | 0.00 | 50 | 1011.3 |
| 20260508225001 | 54 | 296 | 2.0 | 3.0 | 0.00 | 0.00 | 0.00 | 46 | 1011.4 |
| 20260508224002 | 55 | 262 | 6.0 | 6.0 | 0.00 | 0.00 | 0.00 | 46 | 1011.3 |
| 20260508223002 | 55 | 241 | 2.0 | 3.0 | 0.00 | 0.00 | 0.00 | 48 | 1011.3 |
| 20260508221501 | 55 | 276 | 5.0 | 7.0 | 0.00 | 0.00 | 0.00 | 52 | 1011.3 |
| 20260508221002 | 54 | 331 | 3.0 | 4.0 | 0.00 | 0.00 | 0.00 | 49 | 1011.8 |
| 20260508220502 | 54 | 272 | 10.0 | 10.0 | 0.00 | 0.00 | 0.00 | 47 | 1011.6 |
| 20260508220002 | 55 | 308 | 4.0 | 5.0 | 0.00 | 0.00 | 0.00 | 48 | 1011.7 |
| 20260508215501 | 55 | 287 | 8.0 | 10.0 | 0.00 | 0.00 | 0.00 | 54 | 1011.9 |
| 20260508215002 | 54 | 257 | 6.0 | 6.0 | 0.00 | 0.00 | 0.00 | 52 | 1012.0 |
| 20260508213501 | 54 | 284 | 4.0 | 5.0 | 0.00 | 0.00 | 0.00 | 54 | 1011.8 |
| 20260508213002 | 54 | 268 | 5.0 | 6.0 | 0.00 | 0.00 | 0.00 | 56 | 1011.8 |
| 20260508211502 | 54 | 272 | 6.0 | 9.0 | 0.00 | 0.00 | 0.00 | 54 | 1011.9 |
| 20260508211001 | 55 | 305 | 3.0 | 5.0 | 0.00 | 0.00 | 0.00 | 55 | 1012.0 |
| 20260508210001 | 54 | 313 | 3.0 | 5.0 | 0.00 | 0.00 | 0.00 | 55 | 1012.1 |
| 20260508205001 | 52 | 283 | 4.0 | 5.0 | 0.00 | 0.00 | 0.00 | 59 | 1012.2 |
| 20260508204001 | 53 | 294 | 4.0 | 6.0 | 0.00 | 0.00 | 0.00 | 58 | 1012.2 |
| 20260508203001 | 52 | 277 | 5.0 | 6.0 | 0.00 | 0.00 | 0.00 | 59 | 1012.4 |
| 20260508202003 | 52 | 290 | 6.0 | 7.0 | 0.00 | 0.00 | 0.00 | 58 | 1012.5 |
| 20260508200502 | 52 | 265 | 9.0 | 11.0 | 0.00 | 0.00 | 0.00 | 58 | 1012.8 |
| 20260508200001 | 52 | 273 | 10.0 | 14.0 | 0.00 | 0.00 | 0.00 | 58 | 1012.6 |
| 20260508194502 | 52 | 261 | 19.0 | 21.0 | 0.00 | 0.00 | 0.00 | 60 | 1013.0 |
| 20260508193001 | 52 | 297 | 7.0 | 11.0 | 0.00 | 0.00 | 0.00 | 58 | 1013.2 |
| 20260508192502 | 53 | 292 | 11.0 | 12.0 | 0.00 | 0.00 | 0.00 | 58 | 1013.2 |
| 20260508191001 | 52 | 350 | 5.0 | 7.0 | 0.00 | 0.00 | 0.00 | 60 | 1013.0 |
| 20260508190502 | 52 | 308 | 13.0 | 14.0 | 0.00 | 0.00 | 0.00 | 60 | 1013.2 |
| 20260508190001 | 53 | 333 | 4.0 | 4.0 | 0.00 | 0.00 | 0.00 | 59 | 1012.9 |
| 20260508185002 | 53 | 278 | 12.0 | 14.0 | 0.00 | 0.00 | 0.00 | 56 | 1012.9 |
| 20260508184002 | 52 | 274 | 11.0 | 13.0 | 0.00 | 0.00 | 0.00 | 58 | 1013.1 |
| 20260508183501 | 53 | 305 | 4.0 | 5.0 | 0.00 | 0.00 | 0.00 | 57 | 1013.1 |
| 20260508183002 | 52 | 347 | 5.0 | 7.0 | 0.00 | 0.00 | 0.00 | 59 | 1013.1 |
| 20260508182501 | 52 | 268 | 8.0 | 11.0 | 0.00 | 0.00 | 0.00 | 59 | 1013.2 |
| 20260508182002 | 52 | 265 | 15.0 | 18.0 | 0.00 | 0.00 | 0.00 | 57 | 1013.3 |
| 20260508181002 | 51 | 290 | 9.0 | 11.0 | 0.00 | 0.00 | 0.00 | 57 | 1013.5 |
| 20260508175502 | 52 | 279 | 11.0 | 14.0 | 0.00 | 0.00 | 0.00 | 56 | 1013.3 |
| 20260508175001 | 52 | 286 | 9.0 | 13.0 | 0.00 | 0.00 | 0.00 | 58 | 1013.4 |
| 20260508174502 | 52 | 281 | 7.0 | 7.0 | 0.00 | 0.00 | 0.00 | 55 | 1013.5 |
| 20260508174001 | 51 | 252 | 9.0 | 11.0 | 0.00 | 0.00 | 0.00 | 58 | 1013.3 |
| 20260508172501 | 52 | 293 | 9.0 | 11.0 | 0.00 | 0.00 | 0.00 | 59 | 1013.8 |
| 20260508172002 | 52 | 263 | 15.0 | 16.0 | 0.00 | 0.00 | 0.00 | 55 | 1013.5 |
| 20260508171002 | 52 | 277 | 10.0 | 12.0 | 0.00 | 0.00 | 0.00 | 56 | 1013.7 |
| 20260508170501 | 51 | 303 | 4.0 | 6.0 | 0.00 | 0.00 | 0.00 | 55 | 1013.9 |
| 20260508170002 | 51 | 274 | 12.0 | 13.0 | 0.00 | 0.00 | 0.00 | 59 | 1013.8 |
| 20260508165501 | 51 | 292 | 8.0 | 10.0 | 0.00 | 0.00 | 0.00 | 59 | 1013.9 |
| 20260508164502 | 51 | 289 | 7.0 | 7.0 | 0.00 | 0.00 | 0.00 | 58 | 1014.2 |
| 20260508163502 | 51 | 275 | 12.0 | 14.0 | 0.00 | 0.00 | 0.00 | 58 | 1014.3 |
| 20260508163001 | 51 | 292 | 10.0 | 12.0 | 0.00 | 0.00 | 0.00 | 59 | 1014.2 |
| 20260508162502 | 51 | 293 | 5.0 | 6.0 | 0.00 | 0.00 | 0.00 | 61 | 1014.4 |
| 20260508162001 | 50 | 316 | 9.0 | 10.0 | 0.00 | 0.00 | 0.00 | 60 | 1014.3 |
| 20260508161502 | 51 | 286 | 7.0 | 9.0 | 0.00 | 0.00 | 0.00 | 60 | 1014.4 |
| 20260508161002 | 50 | 11 | 5.0 | 6.0 | 0.00 | 0.00 | 0.00 | 64 | 1014.6 |
| 20260508160502 | 50 | 259 | 15.0 | 18.0 | 0.00 | 0.00 | 0.00 | 63 | 1014.5 |
| 20260508160001 | 50 | 272 | 4.0 | 9.0 | 0.00 | 0.00 | 0.00 | 65 | 1014.6 |
| 20260508155502 | 50 | 319 | 10.0 | 12.0 | 0.00 | 0.00 | 0.00 | 63 | 1014.5 |
| 20260508154502 | 50 | 253 | 12.0 | 13.0 | 0.00 | 0.00 | 0.00 | 62 | 1014.8 |
| 20260508152501 | 50 | 272 | 12.0 | 16.0 | 0.00 | 0.00 | 0.00 | 63 | 1014.9 |
| 20260508150002 | 51 | 269 | 7.0 | 10.0 | 0.00 | 0.00 | 0.00 | 64 | 1015.2 |
| 20260508145002 | 49 | 312 | 6.0 | 9.0 | 0.00 | 0.00 | 0.00 | 65 | 1015.3 |
| 20260508144502 | 49 | 293 | 6.0 | 9.0 | 0.00 | 0.00 | 0.00 | 67 | 1015.4 |
| 20260508144002 | 49 | 282 | 6.0 | 7.0 | 0.00 | 0.00 | 0.00 | 66 | 1015.2 |
| 20260508143501 | 49 | 272 | 9.0 | 10.0 | 0.00 | 0.00 | 0.00 | 68 | 1015.4 |
| 20260508143002 | 49 | 286 | 5.0 | 6.0 | 0.00 | 0.00 | 0.00 | 64 | 1015.4 |
| 20260508142001 | 48 | 257 | 9.0 | 11.0 | 0.00 | 0.00 | 0.00 | 71 | 1015.8 |
| 20260508141502 | 48 | 293 | 9.0 | 11.0 | 0.00 | 0.00 | 0.00 | 69 | 1015.8 |
| 20260508141001 | 48 | 271 | 6.0 | 6.0 | 0.00 | 0.00 | 0.00 | 68 | 1015.9 |
| 20260508135502 | 47 | 265 | 9.0 | 10.0 | 0.00 | 0.00 | 0.00 | 71 | 1016.0 |
| 20260508135002 | 46 | 275 | 5.0 | 5.0 | 0.00 | 0.00 | 0.00 | 70 | 1016.0 |
| 20260508134501 | 46 | 287 | 7.0 | 7.0 | 0.00 | 0.00 | 0.00 | 72 | 1016.1 |
| 20260508134002 | 45 | 281 | 5.0 | 5.0 | 0.00 | 0.00 | 0.00 | 71 | 1016.2 |
| 20260508133501 | 45 | 267 | 7.0 | 10.0 | 0.00 | 0.00 | 0.00 | 74 | 1016.3 |
| 20260508133002 | 45 | 263 | 9.0 | 9.0 | 0.00 | 0.00 | 0.00 | 72 | 1016.3 |
| 20260508132502 | 45 | 258 | 6.0 | 7.0 | 0.00 | 0.00 | 0.00 | 75 | 1016.5 |
| 20260508132002 | 44 | 259 | 5.0 | 6.0 | 0.00 | 0.00 | 0.00 | 77 | 1016.4 |
| 20260508131502 | 44 | 265 | 4.0 | 5.0 | 0.00 | 0.00 | 0.00 | 75 | 1016.5 |
| 20260508131002 | 44 | 270 | 6.0 | 7.0 | 0.00 | 0.00 | 0.00 | 76 | 1016.6 |
| 20260508130502 | 44 | 259 | 6.0 | 7.0 | 0.00 | 0.00 | 0.00 | 75 | 1016.6 |
| 20260508130002 | 43 | 269 | 6.0 | 7.0 | 0.00 | 0.00 | 0.00 | 77 | 1016.7 |
| 20260508125502 | 43 | 274 | 6.0 | 6.0 | 0.00 | 0.00 | 0.00 | 76 | 1016.8 |
| 20260508124502 | 43 | 186 | 0.0 | 0.0 | 0.00 | 0.00 | 0.00 | 78 | 1016.7 |